Wind_Speed
18 18 17 17 18 19 20 21 21 21 21 21 20 20 19 19 19 19 19 19 19 18 18 20 20 18 18 17 19 22 21 20 20 21 21 22 23 25 25 26 27 28 29 30 30 31 31 30 30 31 32 35 37 37 37 38 39 39 39 39 39 39 38 37 38 37 37 37 37 36 36 35 36 36
18 18 17 17 16 17 18 19 19 19 19 19 18 18 19 18 18 18 18 19 19 18 18 19 18 17 17 17 18 21 20 19 19 20 20 20 20 20 20 22 24 26 27 28 29 30 30 30 30 30 30 31 33 35 36 37 37 38 38 38 38 38 37 37 37 39 39 37 35 34 34 34 35 36
17 17 17 17 16 16 16 17 18 18 18 18 18 18 18 18 18 18 18 19 19 19 19 19 19 18 17 17 18 19 20 19 19 20 20 20 20 19 19 20 22 23 24 24 24 25 26 27 27 28 29 30 31 32 32 32 33 33 34 34 35 35 35 34 34 35 36 36 34 34 34 35 36 36
16 17 17 17 17 17 17 17 17 17 18 18 18 18 18 19 19 19 20 20 20 20 21 21 21 20 20 20 20 20 21 21 20 21 22 22 21 21 21 21 22 23 23 24 23 23 24 24 25 25 26 26 27 27 27 27 28 28 29 30 30 31 31 30 30 31 31 31 32 33 34 35 35 35
17 17 17 17 18 18 18 18 18 18 18 18 19 19 20 20 20 20 21 22 23 23 23 23 23 23 23 22 23 23 23 23 23 23 24 24 24 24 24 24 24 24 25 26 26 25 25 26 26 26 26 26 26 26 26 26 27 27 27 28 28 29 29 29 29 29 29 29 29 30 32 32 33 33
19 18 18 18 18 19 19 20 20 20 20 20 20 21 22 22 22 22 22 23 24 25 26 26 26 26 26 26 26 26 26 25 26 26 26 27 27 26 26 26 26 27 27 28 28 28 29 28 28 28 28 28 28 28 28 28 28 28 28 29 29 29 30 30 30 29 30 29 29 29 30 31 31 32
20 20 20 20 20 20 20 20 21 22 22 23 23 23 24 24 25 25 25 25 25 26 28 29 29 29 29 29 29 30 29 29 29 29 29 29 29 29 28 28 28 29 29 29 29 30 31 31 31 31 30 30 30 31 31 30 30 30 30 30 31 32 32 32 32 32 32 32 31 31 31 31 31 32
20 20 20 20 20 19 20 20 20 21 22 23 24 25 25 26 27 27 28 28 28 28 29 30 31 31 32 32 32 32 32 33 33 32 32 32 32 31 31 30 31 31 30 30 30 31 32 33 33 33 33 32 32 32 33 33 33 33 33 32 33 33 34 35 35 35 34 34 34 34 34 33 33 32
20 20 20 20 20 19 19 19 20 20 21 22 22 23 24 25 26 27 28 29 30 30 30 31 31 32 33 34 34 34 34 34 34 35 35 35 34 34 33 32 32 32 32 31 31 31 32 33 34 34 35 34 34 33 34 34 35 34 34 34 34 35 35 36 37 37 37 37 36 36 36 36 36 35
22 22 22 22 22 22 22 22 22 23 23 23 23 24 24 25 26 26 27 28 29 30 30 30 31 32 33 33 34 36 36 35 35 35 36 36 37 36 36 35 35 34 33 33 33 33 32 33 33 34 35 35 34 34 34 34 34 34 34 34 34 35 35 36 36 37 37 38 37 38 38 38 38 38
25 25 25 25 25 25 26 27 27 27 27 27 26 26 26 27 27 27 28 28 29 30 30 31 31 32 33 33 34 35 36 37 36 36 35 35 36 36 36 37 37 36 36 35 34 34 33 33 33 33 34 34 34 34 34 34 34 34 34 34 34 34 34 34 35 35 36 37 37 37 37 38 38 39
28 29 29 29 29 29 29 29 28 28 29 28 28 28 28 28 28 28 29 29 30 30 31 32 33 34 34 35 35 35 36 37 37 37 37 36 35 35 35 35 36 37 36 36 35 35 35 34 32 32 32 33 34 34 34 34 33 33 33 33 33 33 33 33 33 33 34 35 35 36 37 37 38 39
32 33 34 34 34 34 34 33 32 31 31 30 30 31 31 31 31 31 31 31 32 32 32 32 33 34 35 37 38 38 39 39 38 38 39 38 37 37 36 36 36 36 36 35 35 35 36 35 34 33 33 33 34 35 35 34 34 33 33 34 34 34 33 33 33 33 34 35 36 37 37 38 39 39
36 37 38 38 38 38 37 37 37 36 36 35 35 36 36 36 36 36 36 36 36 36 36 35 35 36 36 37 39 40 41 42 42 41 41 41 40 40 40 39 39 39 39 37 36 36 37 37 36 36 36 36 37 37 37 36 36 36 36 36 36 37 36 36 35 36 36 37 38 39 40 40 40 40
40 41 41 41 41 41 40 41 40 40 40 40 40 40 40 41 41 41 41 41 41 41 41 40 41 41 40 40 41 42 43 44 45 45 45 44 44 43 42 41 42 43 44 42 40 40 40 40 39 39 39 39 40 40 39 39 39 39 39 39 40 40 40 40 40 40 40 41 42 43 43 43 43 43
42 43 44 43 42 42 43 43 44 43 43 43 43 43 43 43 44 44 44 44 45 45 45 45 45 45 45 44 44 45 46 46 47 47 48 48 47 47 46 45 44 45 47 47 46 44 44 45 44 43 43 43 43 43 43 43 43 42 42 42 43 44 44 44 44 44 44 45 45 46 46 46 46 46
44 45 46 45 45 44 45 45 46 46 46 46 46 46 45 45 45 46 46 47 48 48 49 49 49 49 49 49 48 48 48 48 49 50 50 51 51 50 49 49 48 48 49 50 49 48 48 49 49 48 48 48 48 48 48 48 48 47 46 46 46 46 46 47 48 48 48 48 48 49 49 49 49 49
47 48 48 48 48 48 48 48 48 49 49 49 49 49 48 48 47 47 47 48 49 50 51 51 51 52 52 52 51 51 51 51 51 51 52 52 53 53 53 53 52 52 53 53 53 51 51 53 53 52 52 53 52 53 53 52 52 52 52 51 50 49 49 50 51 52 52 52 51 51 51 50 50 51
50 50 50 50 50 51 51 51 51 52 52 52 52 51 51 50 50 50 50 50 51 51 52 52 52 53 53 53 53 53 53 53 53 54 54 54 54 54 55 56 56 56 56 57 57 54 53 55 56 55 56 57 56 57 57 57 56 56 56 56 54 54 53 53 53 54 55 55 55 53 52 52 52 52
53 53 53 52 53 53 54 54 54 55 55 55 54 53 53 53 53 53 53 54 54 54 54 54 54 54 54 55 55 55 55 55 56 56 56 56 56 56 55 56 56 58 58 60 61 59 57 57 57 57 58 59 59 60 60 60 60 60 60 60 59 58 57 56 56 56 57 58 57 56 54 54 54 53
54 54 54 54 54 55 56 56 56 56 56 56 55 54 54 55 54 55 55 55 55 55 55 55 55 54 54 54 55 56 57 58 59 59 58 59 60 59 58 57 56 57 58 60 62 62 61 61 61 59 59 60 60 61 62 63 64 64 64 64 62 61 60 59 59 58 59 60 59 58 57 57 57 57
54 54 54 54 55 55 55 56 56 56 56 56 55 55 55 56 55 55 55 55 55 54 54 54 53 53 52 52 53 54 55 58 60 61 60 61 61 61 61 60 59 58 58 60 62 63 63 64 64 63 62 62 62 62 62 63 64 65 66 66 65 64 63 61 60 61 61 61 60 60 61 60 60 60
52 53 53 53 53 54 54 54 54 54 54 54 53 54 55 55 55 55 55 54 53 52 52 51 51 51 52 53 53 53 54 56 58 60 61 62 63 62 62 62 61 60 59 60 63 63 63 64 65 65 66 66 65 65 65 65 65 66 67 67 67 66 65 64 63 63 62 61 61 63 64 64 63 62
51 52 52 52 52 52 52 52 52 52 53 52 53 53 54 54 54 54 54 53 53 52 51 52 52 53 53 54 55 56 56 57 58 59 59 60 61 62 63 63 63 62 61 61 62 62 62 63 63 64 66 66 66 67 68 68 69 69 69 69 69 68 68 67 65 63 62 62 63 65 66 66 64 63
51 52 52 52 51 52 52 52 52 52 52 53 53 53 53 54 54 54 53 53 52 52 52 53 53 53 54 54 55 56 57 59 60 60 60 60 60 61 62 62 63 62 62 63 64 63 63 63 62 63 63 63 63 64 64 66 68 68 69 70 69 68 67 66 64 64 64 65 65 66 67 66 64 63
51 52 53 52 51 52 52 52 52 52 52 53 53 53 53 54 54 54 53 52 52 52 52 51 51 52 52 53 54 56 57 59 60 61 62 62 62 63 63 64 64 63 63 64 65 66 65 65 65 65 64 64 63 62 62 62 63 63 64 65 65 64 63 63 64 66 67 67 67 66 65 64 65 65
51 52 52 51 51 52 52 52 52 52 52 53 53 53 54 54 54 54 53 53 53 52 52 52 52 52 52 52 54 56 58 59 60 61 61 62 62 62 62 63 64 65 66 66 67 67 67 67 67 68 68 68 67 66 65 64 64 64 64 65 65 65 65 67 68 68 67 67 65 64 64 65 66 66
51 51 51 51 51 51 52 52 52 52 52 52 53 53 53 54 54 54 54 55 54 53 53 53 53 53 53 53 55 57 59 61 61 62 62 61 60 59 60 60 62 63 64 65 66 66 65 65 65 66 67 69 70 70 70 69 69 69 70 70 70 69 69 68 67 66 65 65 65 65 65 66 66 66
50 50 50 50 50 50 51 51 51 51 51 51 52 53 53 54 54 55 55 55 54 53 53 53 54 54 56 57 58 60 61 62 63 64 64 63 62 61 62 63 63 62 62 62 62 62 61 60 60 62 63 64 66 67 68 68 68 68 69 69 68 67 65 64 64 64 65 65 65 65 66 66 66 66
48 48 48 48 49 48 48 48 49 49 49 50 51 53 53 54 55 55 55 54 54 54 54 55 56 58 61 63 64 63 63 64 64 65 66 65 65 65 66 65 64 63 62 61 60 60 61 61 62 62 62 62 62 62 63 64 63 63 65 65 63 63 63 63 64 64 63 63 64 65 66 67 65 62
45 45 46 46 46 47 47 47 48 49 50 51 52 52 53 54 54 55 55 56 56 57 58 60 62 64 65 65 65 63 62 63 64 66 68 68 68 68 68 66 64 62 62 62 63 64 65 65 65 64 63 63 63 63 64 64 63 63 64 64 62 62 62 62 63 64 64 64 65 64 63 61 58 56
44 44 45 45 46 46 47 47 48 49 50 50 51 52 52 53 55 56 57 58 60 62 63 65 65 65 64 63 62 62 62 62 64 66 68 69 69 69 68 65 63 62 63 63 64 66 66 66 65 64 64 63 64 64 65 65 64 64 65 64 63 63 63 64 65 66 65 62 59 56 53 52 51 51
45 45 45 45 46 46 46 46 47 47 48 48 49 51 53 54 56 58 60 62 63 64 65 64 64 63 62 62 63 63 64 64 65 66 67 68 68 68 68 66 65 65 64 64 65 65 66 66 65 65 65 65 65 66 67 66 66 66 67 66 65 65 64 63 62 60 57 52 49 47 47 47 46 46
43 42 42 41 41 41 42 42 44 45 47 49 51 52 54 56 58 59 61 62 62 63 63 63 63 64 64 65 65 65 65 65 65 66 66 67 67 67 66 66 65 64 64 64 64 64 64 65 65 65 65 65 65 65 64 63 62 61 61 60 58 56 55 52 50 49 48 46 45 45 45 44 43 43
35 34 35 35 36 38 40 42 44 46 48 50 51 53 54 55 57 58 59 60 61 62 62 63 63 63 62 62 61 61 60 60 59 60 60 60 60 60 60 59 58 58 58 58 57 58 59 59 59 59 59 58 57 56 55 54 53 51 50 49 48 46 45 44 44 45 45 45 44 45 44 43 41 41
29 30 32 34 36 38 40 42 43 45 46 48 49 51 53 55 56 57 57 58 58 58 58 58 57 56 55 54 54 53 53 52 52 52 51 51 51 51 51 50 50 50 50 50 50 51 51 51 51 51 50 49 48 46 45 46 46 45 44 44 43 42 41 41 42 44 45 44 44 44 43 41 39 38
29 31 32 34 35 36 38 39 40 42 44 46 48 50 52 53 53 53 53 53 53 53 52 51 50 49 48 47 46 46 45 44 44 43 43 42 42 42 41 41 41 41 42 42 42 43 43 43 43 42 42 41 40 39 39 41 42 40 40 40 40 40 40 41 42 43 43 42 42 41 40 39 37 35
28 29 29 30 32 33 35 37 39 42 44 46 47 48 49 50 50 50 50 50 49 48 47 45 43 42 40 39 38 37 37 37 36 36 35 35 35 34 34 34 34 35 35 35 35 36 37 36 36 37 38 38 37 37 37 38 38 38 39 39 39 40 40 40 40 39 38 37 37 36 36 35 34 32
22 24 26 28 31 33 35 37 38 40 42 44 46 47 48 49 49 48 47 45 43 40 38 36 35 34 33 32 31 30 30 30 29 29 29 29 29 30 30 31 32 32 32 31 31 32 32 32 33 34 36 36 36 36 37 36 36 37 38 38 38 37 36 36 34 33 32 32 32 32 32 32 31 30
20 23 26 28 30 31 33 34 36 39 41 43 45 46 46 45 44 42 40 36 33 30 29 29 29 29 28 28 28 27 26 26 26 27 27 28 29 29 30 30 29 29 28 28 28 29 30 30 31 33 34 35 35 35 34 33 33 34 34 34 33 32 31 30 29 27 27 28 29 29 30 30 29 28
20 23 25 26 27 28 30 32 35 38 40 42 43 42 40 38 36 33 30 27 25 25 25 25 24 23 23 23 23 22 22 23 24 25 26 26 27 28 28 27 27 27 27 27 28 28 29 30 32 33 34 35 35 34 33 32 32 32 32 31 29 28 28 26 25 25 25 26 27 27 28 28 28 27
19 21 23 24 25 27 30 33 36 38 40 40 38 35 32 29 27 25 24 23 22 21 20 19 18 18 18 18 19 20 21 22 23 24 25 26 26 27 27 28 28 29 29 29 30 30 31 32 33 34 35 35 35 33 32 32 32 32 31 30 28 26 25 24 24 24 24 24 25 27 27 26 26 25
19 21 22 23 26 28 31 34 37 38 39 37 32 26 23 21 21 20 19 18 16 15 15 15 15 16 17 19 21 22 23 23 23 24 24 25 25 26 27 27 27 28 28 29 29 29 29 29 30 30 30 30 29 28 28 28 28 30 30 29 26 24 23 24 24 25 25 25 26 26 25 24 24 24
20 22 23 25 27 29 32 35 37 38 37 31 24 20 18 16 15 14 13 12 11 12 14 15 15 16 19 21 21 20 20 20 19 19 20 20 21 21 22 22 23 24 24 24 24 25 25 25 26 25 23 22 22 22 22 23 25 27 27 26 24 22 22 23 25 26 25 25 25 24 23 23 23 23
22 24 25 26 28 30 33 35 37 36 32 25 19 17 16 13 11 10 10 10 12 13 14 15 16 18 21 21 19 18 18 18 18 18 18 18 17 17 18 18 19 19 19 20 21 21 22 23 23 22 21 20 20 20 21 22 23 24 24 24 23 22 21 23 25 25 24 23 21 21 20 20 19 18
Wind_Direction
272 272 270 267 262 260 261 261 261 262 263 263 262 261 260 259 258 258 257 257 256 255 254 256 257 258 260 259 258 262 263 264 266 266 263 261 260 260 260 258 256 254 254 256 256 256 256 257 257 258 257 255 253 253 255 259 261 263 264 266 267 268 268 266 264 265 268 268 266 265 265 266 267 268
273 273 272 271 267 264 262 262 262 263 263 263 262 260 259 259 259 258 257 256 256 254 253 255 256 254 253 252 253 258 261 259 259 262 264 264 263 262 261 260 258 257 258 258 258 257 257 257 257 257 257 255 253 254 255 258 260 262 263 265 266 267 268 267 263 261 265 268 269 267 266 267 268 269
272 272 272 272 270 267 264 262 263 263 265 265 263 261 259 259 260 260 261 260 258 257 257 257 257 255 253 251 252 255 259 258 256 258 260 261 262 261 259 259 259 260 260 260 260 259 259 258 257 256 256 255 255 256 257 258 260 261 263 265 266 267 268 269 266 264 265 269 271 270 269 269 269 270
273 271 270 270 270 270 268 266 264 263 264 266 267 267 264 262 261 262 264 266 265 263 262 262 262 260 258 256 255 255 258 260 258 258 258 258 259 259 259 259 259 260 262 261 260 260 260 260 259 257 256 256 256 257 257 258 259 260 262 264 266 268 268 269 269 269 269 269 270 270 270 270 270 271
269 269 269 268 268 268 269 268 267 265 263 263 265 267 268 268 267 265 265 268 270 271 269 268 267 267 265 264 262 260 260 261 261 261 261 260 259 260 260 260 260 261 262 263 263 262 260 260 260 260 259 259 259 259 259 259 260 261 263 265 267 268 269 270 270 271 271 271 270 270 271 272 273 272
265 265 266 267 267 267 268 268 268 269 267 266 264 264 265 267 267 268 267 267 269 271 273 273 272 272 270 270 269 268 266 264 264 264 264 264 264 263 263 263 262 262 263 265 266 266 265 264 263 263 264 263 263 262 263 263 264 264 266 267 269 270 270 271 272 272 273 273 273 272 273 274 274 274
268 267 267 267 268 268 269 269 270 271 271 271 271 269 268 267 266 267 267 267 267 269 271 273 274 274 273 272 272 272 271 270 269 268 267 267 267 267 267 267 266 265 265 266 267 269 270 270 269 268 268 268 268 267 267 267 267 267 267 268 269 270 271 272 272 273 273 273 274 273 274 274 274 274
268 268 268 268 268 268 269 271 272 272 273 274 274 274 274 273 271 270 268 268 268 268 270 271 272 273 275 275 274 272 271 271 271 271 270 270 269 269 269 268 268 268 268 267 267 267 269 270 271 272 271 271 271 271 272 271 271 270 270 270 270 271 272 273 273 273 273 274 274 274 274 275 275 275
262 263 264 264 264 265 267 269 271 273 275 277 277 278 278 278 278 277 276 274 272 271 271 272 273 274 274 275 277 276 274 272 271 271 271 271 271 271 270 269 268 268 268 268 267 266 266 267 269 270 271 270 270 270 270 271 272 272 272 272 272 272 273 274 275 275 275 275 275 274 274 275 276 277
260 260 259 259 260 260 263 266 270 273 275 276 278 279 280 281 282 283 283 282 281 279 278 277 277 277 277 276 276 277 276 275 274 271 270 271 271 271 271 271 270 269 268 267 266 266 265 265 265 266 267 268 268 267 267 267 268 269 270 270 270 270 271 272 274 275 276 276 276 275 275 275 275 276
265 266 264 264 265 265 266 267 269 272 274 275 276 277 278 280 281 282 284 284 284 284 283 282 281 281 282 281 280 279 277 277 277 276 273 271 271 271 271 271 271 271 270 269 268 266 265 264 264 265 265 266 266 265 264 263 263 264 265 266 267 268 268 269 271 273 275 277 278 278 278 276 275 275
270 272 272 273 274 274 273 272 273 275 276 275 276 277 278 279 281 282 283 284 284 284 283 282 281 280 280 280 280 280 279 278 278 278 278 276 274 272 271 270 270 269 269 269 270 269 268 267 265 264 264 264 264 264 264 263 263 262 263 264 265 266 268 269 271 273 275 278 279 280 280 279 278 276
269 271 273 275 276 277 277 277 279 280 279 278 278 278 279 281 282 283 284 284 285 285 285 284 283 282 280 278 276 276 276 276 276 277 277 278 277 276 274 272 270 268 266 266 266 267 268 268 267 266 264 263 262 264 265 265 265 265 265 265 266 267 269 271 273 276 278 279 281 281 281 280 280 279
267 269 271 273 275 277 278 279 280 281 281 281 280 280 280 281 282 283 284 284 284 284 284 285 285 285 284 282 279 275 274 273 273 273 273 274 274 275 275 274 272 270 269 267 266 265 265 264 264 264 263 262 262 263 265 265 266 267 268 269 269 270 271 273 276 279 281 282 283 282 282 281 280 280
268 270 271 272 273 276 278 279 281 282 282 282 281 281 281 282 283 283 284 284 284 284 284 284 285 285 285 284 283 280 276 274 272 271 270 270 270 269 270 270 270 269 269 269 268 267 265 264 263 262 261 260 260 261 262 263 264 266 268 270 271 273 274 276 278 280 283 284 285 284 284 283 283 281
268 270 271 271 272 273 276 278 280 281 282 282 282 282 283 283 284 284 284 284 284 284 283 283 284 284 284 284 283 281 279 276 274 272 270 269 268 267 266 266 266 266 266 267 267 266 264 263 263 263 262 262 261 261 262 262 262 263 264 267 270 273 276 278 279 280 282 284 285 285 285 284 283 283
268 268 269 271 272 273 274 276 277 279 280 281 282 282 283 284 285 285 285 285 284 284 283 283 283 283 282 282 282 280 278 276 273 272 270 269 268 267 266 265 264 264 265 265 264 264 263 262 262 263 263 263 263 264 264 265 265 265 265 265 267 271 274 277 279 280 281 283 285 285 284 283 282 282
270 270 270 272 273 273 274 275 276 277 278 279 281 282 284 284 284 283 283 282 282 282 282 283 283 282 282 281 281 279 277 274 272 270 269 269 268 267 266 265 265 264 265 265 264 263 263 262 262 262 263 263 264 265 266 267 268 268 268 268 268 269 271 274 276 279 281 283 284 284 283 281 280 280
271 272 273 274 275 275 275 276 276 277 278 278 280 281 283 283 282 281 280 279 279 279 280 281 280 280 279 279 278 277 275 273 271 269 268 267 266 265 265 264 264 264 264 265 264 263 263 263 263 262 262 263 264 265 266 267 268 269 269 270 270 271 272 273 274 276 279 282 283 283 281 280 279 278
271 272 274 274 275 275 276 276 277 277 278 279 280 280 280 279 279 279 279 279 279 280 279 279 277 276 275 275 274 273 273 272 271 269 268 267 266 265 263 263 263 262 263 264 264 263 262 263 263 262 262 263 263 264 265 266 267 268 268 269 269 271 272 273 274 276 278 281 282 280 279 278 277 277
271 272 272 273 273 274 275 275 276 277 277 278 279 279 278 277 277 277 277 278 279 280 279 278 277 276 274 272 271 271 271 270 270 268 267 267 266 265 264 263 262 261 261 262 263 263 262 262 261 261 261 262 262 263 264 264 265 266 267 268 269 269 271 272 273 275 277 279 279 278 277 277 277 277
272 271 272 272 272 273 273 274 274 275 275 276 276 275 275 276 276 276 276 277 277 277 277 276 276 275 275 274 273 272 271 271 270 270 268 267 266 265 264 264 263 262 262 262 263 262 262 261 261 260 259 259 261 262 262 263 264 265 266 267 268 269 270 270 271 273 275 276 276 276 277 277 277 278
271 272 272 272 272 272 272 273 273 273 273 274 274 273 274 274 275 275 275 276 276 275 273 272 272 273 274 274 273 272 271 271 271 271 271 269 268 267 266 265 264 263 263 263 263 263 262 262 262 261 260 258 259 259 260 261 263 264 266 267 268 269 270 270 271 272 273 273 274 275 276 277 277 277
272 272 272 272 272 273 273 273 273 273 273 273 273 273 274 274 274 274 274 275 274 272 271 271 271 272 272 272 272 271 270 269 269 269 270 270 270 269 268 267 266 265 265 264 264 264 263 262 262 263 262 261 260 260 260 260 261 262 263 264 266 267 269 270 270 271 271 272 273 274 276 276 277 276
272 272 273 273 274 274 274 274 273 273 273 274 274 274 274 274 273 274 274 274 274 273 272 271 271 271 271 270 270 269 269 268 267 267 267 268 268 269 269 268 268 268 267 266 266 265 264 264 263 263 264 264 263 263 263 262 262 262 262 263 263 264 266 267 268 270 271 272 273 274 274 275 275 275
272 273 273 274 274 274 274 274 274 274 273 273 273 273 272 272 273 274 274 274 274 273 272 271 271 270 269 269 269 269 269 270 269 269 268 268 267 268 268 268 268 268 267 267 267 266 266 266 266 265 265 265 265 265 265 264 264 264 264 264 263 263 264 265 267 270 272 272 272 272 272 273 273 275
272 272 273 273 274 274 274 274 274 274 273 273 272 272 272 272 273 274 274 274 274 273 272 271 271 270 270 271 272 273 274 274 274 273 273 271 270 270 270 269 269 269 268 267 267 267 267 266 266 266 266 265 265 265 264 264 265 265 264 265 265 265 266 267 269 270 271 271 271 271 271 272 273 274
272 273 273 274 274 273 273 274 274 274 273 272 272 272 272 273 274 274 274 274 273 272 271 271 270 270 271 273 275 276 277 276 276 275 275 275 274 274 274 274 273 272 271 270 269 268 268 268 267 267 267 266 265 265 264 264 264 265 265 266 266 267 268 269 269 269 269 269 270 270 271 272 272 273
272 273 274 274 274 274 274 274 274 274 274 274 273 273 273 274 275 275 274 274 273 272 271 270 269 269 270 272 275 276 276 276 275 275 275 275 275 276 277 277 276 274 273 272 270 268 268 269 270 270 270 269 268 267 266 265 265 265 266 266 266 267 268 268 269 269 269 269 269 270 271 272 273 273
272 273 273 274 274 274 275 275 276 276 276 275 275 275 275 275 275 275 275 274 274 273 272 271 271 271 272 274 276 276 275 273 273 273 274 275 276 276 277 277 275 274 273 272 269 267 268 270 272 272 271 271 270 269 269 268 267 267 267 267 267 267 268 268 268 268 269 269 270 271 272 272 272 271
273 273 274 274 275 276 276 276 276 277 277 277 277 277 276 276 275 275 275 275 275 275 275 276 277 277 278 278 278 277 275 272 271 271 272 273 275 276 276 275 273 272 271 270 269 268 269 271 272 272 271 271 271 271 270 270 269 269 269 269 269 268 268 268 269 269 270 271 271 271 271 270 269 267
274 275 275 275 275 276 276 276 277 277 277 277 277 277 276 276 276 276 276 277 277 278 279 280 280 280 279 278 277 276 275 273 271 270 271 272 273 273 273 273 272 271 270 269 269 269 269 270 270 270 271 271 271 271 271 270 270 270 270 270 269 269 269 269 269 270 271 270 270 268 266 265 264 264
273 274 274 275 275 276 276 277 277 278 278 279 279 279 279 279 279 279 279 279 280 280 280 280 280 279 278 278 277 276 276 275 274 273 272 272 272 272 272 271 271 270 270 269 269 269 269 270 270 271 271 272 271 271 271 271 271 270 270 270 269 269 268 268 268 268 268 266 265 263 263 262 262 262
272 273 274 275 276 277 278 280 280 281 281 281 281 281 281 281 280 280 280 280 280 280 280 280 280 279 279 278 278 277 276 275 274 273 272 272 271 271 271 270 270 269 268 268 268 269 269 270 270 271 271 271 271 271 271 270 270 269 268 268 267 266 266 265 264 263 262 262 261 261 261 261 261 261
273 275 277 278 280 281 282 282 282 283 283 283 283 283 282 282 282 281 281 281 281 281 281 280 280 280 279 279 278 277 276 275 274 273 272 271 271 270 269 269 268 268 267 267 267 267 268 268 269 269 269 269 269 269 268 268 266 265 265 265 264 263 261 260 259 259 259 260 260 261 261 261 261 260
277 279 281 282 283 283 283 284 284 285 286 286 285 285 284 283 283 282 282 282 282 282 282 281 281 281 281 280 279 278 277 276 275 274 273 272 271 270 269 268 267 267 266 266 266 265 266 266 266 266 266 266 265 264 264 263 263 261 261 261 260 259 258 257 257 258 260 261 261 260 260 260 260 257
280 281 282 283 283 285 286 288 290 290 290 289 288 287 286 285 285 285 286 286 285 285 285 285 285 285 284 282 281 280 279 278 277 276 275 273 272 271 270 268 267 266 266 265 265 265 264 265 264 264 263 263 263 261 260 261 261 260 258 258 256 255 255 256 258 259 260 260 259 258 257 257 255 251
280 281 284 287 290 293 295 295 295 294 293 291 290 289 289 290 290 291 290 290 289 289 289 288 287 286 284 283 282 282 281 280 279 277 275 274 272 271 270 270 269 269 268 267 267 266 266 265 264 264 263 262 261 260 258 258 259 258 257 257 256 256 257 257 258 258 258 257 256 254 254 253 249 243
287 292 296 298 299 300 299 298 296 295 294 293 293 293 293 293 294 293 292 291 291 291 290 289 288 287 285 284 283 283 283 282 280 278 275 274 273 272 272 273 273 272 270 269 268 267 266 266 264 263 262 261 261 260 259 259 259 259 258 258 257 258 257 257 255 252 250 251 252 251 251 248 242 238
304 304 303 302 301 301 300 299 298 298 297 297 297 297 297 296 295 294 292 292 292 292 292 291 290 288 286 285 285 285 284 282 280 278 276 275 275 275 275 274 273 271 269 267 265 265 265 265 264 262 262 262 261 261 261 260 260 258 258 257 257 256 253 250 246 243 243 246 248 248 247 243 237 233
309 307 305 304 304 305 306 307 307 305 304 302 301 301 300 298 295 293 293 293 293 294 295 294 293 291 290 289 289 288 286 284 282 279 278 277 276 275 274 272 269 268 266 264 262 262 263 263 262 262 262 262 262 261 261 259 257 256 255 254 253 250 246 243 240 239 242 245 247 247 245 239 232 229
314 313 312 312 314 316 317 317 315 313 310 308 307 305 303 299 295 294 295 296 296 297 298 297 297 297 296 294 292 290 288 286 283 280 278 276 274 272 271 270 268 267 266 265 264 263 263 262 261 261 262 262 263 262 260 257 254 251 249 248 247 243 238 236 237 240 243 246 247 245 240 233 227 226
331 327 324 323 325 326 327 326 323 320 317 315 312 309 306 303 301 299 297 295 297 300 303 305 306 306 305 303 299 295 292 290 287 284 280 276 274 272 271 271 270 268 268 267 266 264 263 262 261 262 262 263 262 260 257 253 249 245 242 240 239 235 230 231 234 239 243 246 244 241 234 225 220 221
345 341 337 335 334 335 335 333 330 326 322 319 316 314 314 311 304 296 291 292 300 308 311 311 311 313 316 314 308 302 300 299 297 294 290 285 282 280 278 276 275 274 271 269 268 265 263 261 261 262 263 262 260 257 252 247 243 238 233 229 228 227 226 229 232 237 242 244 241 234 226 219 218 220
351 349 347 343 341 342 342 338 334 331 327 321 317 319 319 311 297 289 290 296 306 314 316 313 312 316 320 319 314 310 311 312 309 305 299 294 290 289 287 284 281 278 275 272 269 267 264 262 262 262 262 261 260 257 251 244 237 229 222 218 219 222 224 228 232 235 237 236 230 222 216 213 215 217
Height
5738 5738 5739 5740 5740 5740 5741 5741 5742 5742 5743 5743 5743 5744 5744 5745 5745 5745 5746 5747 5747 5748 5749 5749 5750 5751 5752 5753 5752 5752 5753 5754 5755 5756 5757 5758 5759 5759 5760 5761 5762 5763 5764 5765 5766 5767 5768 5769 5769 5770 5770 5771 5772 5774 5775 5776 5776 5777 5777 5777 5777 5778 5778 5779 5779 5779 5779 5780 5781 5781 5782 5783 5783 5783
5736 5737 5737 5738 5738 5739 5739 5740 5740 5740 5741 5741 5742 5742 5742 5743 5743 5743 5744 5744 5745 5746 5746 5746 5747 5748 5749 5750 5750 5750 5750 5752 5753 5753 5754 5755 5756 5757 5758 5758 5759 5759 5760 5761 5762 5763 5764 5765 5765 5766 5766 5767 5768 5769 5771 5772 5772 5772 5772 5773 5773 5773 5773 5774 5774 5775 5775 5776 5776 5777 5777 5778 5778 5778
5734 5735 5735 5736 5736 5737 5738 5738 5739 5739 5739 5740 5740 5740 5741 5741 5741 5741 5742 5742 5742 5743 5744 5744 5744 5745 5746 5747 5748 5748 5748 5749 5751 5751 5752 5752 5753 5754 5755 5756 5756 5757 5757 5758 5759 5760 5761 5761 5762 5762 5763 5764 5765 5766 5767 5768 5768 5768 5768 5768 5768 5769 5769 5769 5769 5770 5771 5771 5772 5772 5772 5773 5773 5773
5732 5733 5733 5734 5734 5735 5735 5736 5737 5737 5738 5738 5738 5739 5739 5740 5740 5740 5740 5740 5740 5741 5741 5741 5742 5742 5743 5744 5745 5745 5746 5746 5748 5748 5749 5750 5751 5751 5752 5753 5753 5754 5754 5755 5756 5757 5758 5758 5758 5759 5760 5760 5761 5762 5763 5764 5764 5764 5764 5764 5764 5764 5765 5765 5765 5765 5766 5767 5767 5767 5768 5768 5768 5768
5730 5730 5731 5731 5732 5732 5733 5733 5733 5734 5735 5735 5736 5736 5737 5737 5738 5738 5739 5738 5738 5738 5739 5739 5739 5739 5740 5741 5741 5742 5743 5743 5744 5745 5745 5746 5747 5748 5749 5750 5750 5751 5751 5752 5753 5754 5754 5755 5755 5755 5756 5757 5758 5758 5759 5760 5760 5761 5761 5761 5761 5761 5760 5761 5761 5761 5762 5762 5763 5763 5763 5763 5763 5763
5727 5727 5728 5728 5729 5730 5730 5731 5731 5731 5732 5732 5733 5733 5734 5734 5735 5735 5736 5736 5736 5736 5736 5736 5736 5736 5737 5738 5738 5739 5739 5740 5741 5742 5742 5743 5744 5745 5746 5746 5747 5748 5748 5748 5749 5749 5750 5751 5751 5752 5752 5753 5753 5754 5755 5755 5756 5757 5757 5757 5757 5757 5757 5757 5757 5757 5757 5758 5759 5759 5759 5759 5759 5759
5725 5725 5725 5726 5726 5727 5727 5728 5728 5729 5729 5729 5730 5730 5731 5731 5732 5732 5732 5733 5734 5734 5733 5733 5733 5733 5733 5734 5735 5735 5735 5736 5737 5738 5738 5739 5740 5741 5742 5742 5743 5744 5744 5745 5745 5745 5745 5746 5746 5747 5748 5748 5749 5749 5750 5751 5752 5752 5753 5753 5753 5752 5752 5752 5753 5753 5753 5754 5754 5755 5754 5754 5755 5755
5723 5723 5723 5723 5724 5724 5724 5725 5725 5726 5726 5726 5727 5727 5728 5728 5728 5729 5729 5730 5730 5731 5731 5730 5730 5730 5730 5730 5731 5731 5732 5732 5733 5733 5734 5734 5735 5736 5737 5738 5738 5739 5740 5740 5741 5741 5741 5741 5741 5742 5743 5744 5744 5744 5745 5745 5746 5747 5747 5748 5748 5748 5748 5748 5748 5748 5748 5749 5750 5750 5750 5750 5750 5750
5721 5721 5721 5721 5721 5721 5722 5722 5722 5723 5723 5723 5723 5724 5724 5724 5725 5725 5725 5726 5726 5727 5727 5727 5727 5727 5727 5727 5726 5726 5727 5728 5729 5729 5729 5730 5730 5731 5732 5733 5733 5734 5734 5735 5736 5737 5737 5737 5737 5737 5737 5738 5739 5740 5740 5740 5740 5741 5741 5742 5743 5743 5743 5742 5742 5743 5743 5744 5744 5745 5745 5746 5745 5745
5718 5718 5718 5719 5719 5719 5719 5719 5719 5720 5720 5720 5720 5720 5720 5720 5721 5721 5721 5721 5722 5722 5723 5723 5723 5723 5723 5723 5723 5722 5722 5723 5724 5725 5725 5725 5725 5726 5726 5727 5728 5728 5729 5730 5731 5732 5732 5733 5733 5733 5733 5733 5734 5735 5735 5736 5736 5736 5736 5737 5737 5737 5738 5738 5737 5737 5737 5738 5739 5739 5740 5740 5740 5740
5714 5715 5715 5715 5716 5716 5715 5716 5716 5716 5716 5717 5717 5717 5717 5717 5717 5717 5717 5717 5718 5718 5718 5719 5719 5719 5718 5718 5718 5718 5718 5717 5718 5718 5720 5721 5721 5722 5722 5722 5722 5723 5723 5724 5725 5726 5727 5728 5728 5728 5728 5728 5728 5729 5730 5730 5731 5731 5731 5732 5732 5732 5733 5733 5733 5733 5733 5733 5733 5734 5734 5735 5735 5735
5711 5711 5711 5712 5712 5712 5711 5712 5712 5712 5713 5713 5713 5713 5713 5713 5713 5713 5713 5713 5713 5714 5714 5714 5714 5714 5714 5714 5713 5713 5713 5713 5713 5713 5713 5715 5716 5717 5718 5718 5718 5718 5718 5718 5719 5720 5720 5722 5723 5723 5723 5723 5723 5723 5724 5725 5725 5726 5726 5727 5727 5727 5728 5728 5729 5729 5728 5728 5728 5728 5729 5729 5729 5729
5708 5707 5707 5708 5707 5707 5707 5708 5708 5708 5709 5709 5709 5709 5709 5709 5709 5709 5709 5709 5709 5709 5709 5710 5710 5710 5710 5709 5709 5709 5708 5708 5709 5709 5708 5709 5710 5710 5711 5712 5713 5713 5713 5714 5715 5715 5715 5716 5717 5718 5719 5719 5718 5718 5718 5719 5720 5720 5721 5721 5721 5722 5722 5723 5723 5723 5723 5723 5723 5723 5723 5723 5723 5723
5703 5704 5703 5703 5703 5703 5703 5703 5703 5703 5703 5704 5704 5704 5704 5704 5704 5704 5704 5704 5704 5704 5704 5704 5704 5704 5705 5704 5704 5704 5704 5703 5703 5704 5704 5704 5704 5704 5705 5706 5706 5706 5707 5708 5710 5711 5710 5710 5712 5713 5713 5713 5713 5713 5714 5714 5714 5715 5715 5715 5715 5716 5716 5717 5717 5717 5718 5718 5718 5717 5717 5718 5718 5718
5699 5699 5699 5699 5699 5698 5698 5698 5698 5698 5698 5698 5698 5698 5698 5699 5699 5699 5699 5699 5698 5698 5698 5698 5698 5698 5699 5698 5698 5698 5697 5697 5697 5698 5698 5698 5698 5699 5700 5700 5700 5700 5699 5700 5703 5704 5704 5704 5706 5707 5707 5708 5708 5709 5709 5709 5709 5709 5709 5709 5709 5709 5710 5710 5711 5711 5712 5712 5712 5711 5711 5712 5712 5712
5693 5693 5693 5693 5693 5694 5693 5692 5692 5692 5692 5692 5691 5692 5692 5692 5692 5692 5692 5692 5692 5692 5692 5692 5692 5692 5692 5692 5692 5691 5690 5690 5691 5691 5691 5691 5691 5692 5693 5694 5695 5694 5693 5693 5695 5697 5698 5697 5698 5700 5700 5701 5702 5702 5703 5704 5704 5705 5705 5705 5704 5703 5704 5704 5704 5705 5705 5705 5705 5705 5705 5705 5705 5705
5686 5686 5686 5687 5687 5688 5687 5687 5687 5687 5686 5686 5685 5686 5686 5686 5686 5686 5685 5685 5685 5685 5685 5685 5685 5685 5684 5685 5685 5684 5683 5683 5683 5683 5683 5683 5684 5685 5686 5687 5688 5688 5687 5686 5687 5690 5691 5690 5691 5692 5693 5693 5694 5695 5696 5696 5697 5698 5699 5700 5700 5699 5699 5698 5698 5698 5699 5699 5699 5699 5699 5699 5699 5699
5679 5679 5680 5680 5680 5680 5680 5680 5680 5680 5680 5679 5679 5679 5680 5680 5680 5679 5679 5678 5677 5677 5677 5677 5678 5677 5676 5677 5677 5676 5675 5675 5675 5675 5675 5676 5676 5677 5678 5679 5680 5680 5679 5679 5679 5683 5684 5682 5683 5685 5685 5685 5686 5686 5687 5688 5688 5689 5690 5692 5693 5694 5693 5693 5692 5691 5691 5692 5692 5692 5692 5692 5692 5692
5672 5672 5673 5673 5672 5672 5672 5673 5673 5673 5672 5672 5672 5673 5673 5673 5672 5672 5672 5671 5670 5670 5670 5670 5669 5669 5668 5668 5668 5667 5666 5666 5667 5667 5667 5668 5668 5669 5670 5670 5671 5672 5671 5670 5670 5674 5676 5674 5675 5678 5677 5676 5678 5678 5678 5679 5680 5680 5681 5682 5684 5685 5685 5686 5686 5685 5685 5685 5685 5686 5685 5685 5685 5685
5665 5665 5665 5665 5665 5664 5665 5665 5665 5665 5665 5664 5665 5665 5665 5665 5665 5664 5663 5662 5662 5663 5662 5662 5661 5661 5660 5659 5659 5658 5658 5658 5658 5657 5658 5659 5658 5659 5661 5662 5663 5663 5663 5661 5661 5664 5667 5666 5666 5669 5669 5668 5670 5670 5670 5670 5671 5671 5672 5673 5674 5676 5677 5677 5678 5678 5678 5677 5677 5678 5677 5677 5677 5677
5658 5658 5658 5658 5657 5657 5658 5658 5658 5657 5656 5656 5657 5657 5656 5656 5656 5656 5654 5654 5654 5654 5654 5653 5653 5652 5652 5651 5650 5650 5649 5649 5648 5648 5650 5650 5648 5649 5652 5653 5654 5654 5654 5654 5652 5654 5657 5657 5657 5660 5660 5660 5661 5662 5662 5661 5661 5662 5662 5663 5665 5667 5668 5669 5670 5670 5670 5669 5669 5669 5669 5669 5669 5669
5650 5649 5649 5650 5650 5650 5650 5650 5650 5649 5648 5648 5648 5648 5648 5647 5647 5647 5646 5646 5646 5646 5645 5644 5644 5643 5643 5642 5642 5642 5641 5640 5639 5639 5640 5640 5639 5641 5642 5643 5644 5646 5646 5645 5643 5643 5646 5647 5647 5650 5651 5651 5652 5653 5654 5653 5653 5653 5653 5654 5655 5657 5659 5660 5661 5662 5662 5661 5661 5660 5660 5660 5660 5661
5641 5641 5641 5642 5642 5642 5642 5642 5642 5641 5640 5640 5640 5639 5639 5639 5638 5638 5638 5638 5638 5638 5637 5637 5636 5635 5635 5634 5633 5633 5633 5632 5630 5630 5630 5630 5629 5631 5632 5632 5634 5636 5637 5636 5633 5634 5636 5637 5637 5638 5639 5641 5643 5644 5645 5645 5645 5645 5645 5645 5646 5647 5649 5651 5652 5652 5653 5653 5652 5652 5651 5651 5651 5652
5633 5633 5633 5634 5634 5634 5635 5634 5633 5633 5632 5632 5632 5631 5630 5630 5629 5629 5629 5629 5629 5629 5629 5629 5628 5628 5627 5625 5624 5624 5623 5623 5622 5621 5621 5620 5620 5621 5622 5623 5624 5626 5628 5626 5624 5625 5626 5627 5628 5628 5627 5630 5633 5634 5635 5635 5635 5637 5637 5637 5638 5639 5639 5641 5642 5643 5644 5644 5643 5643 5642 5642 5642 5643
5625 5624 5625 5627 5627 5626 5626 5626 5625 5625 5625 5624 5623 5623 5622 5621 5621 5621 5621 5621 5621 5620 5620 5620 5620 5619 5618 5617 5616 5615 5614 5613 5613 5612 5612 5612 5612 5612 5613 5613 5614 5616 5617 5616 5615 5616 5617 5618 5619 5618 5618 5620 5622 5623 5625 5625 5625 5627 5627 5627 5630 5631 5631 5632 5633 5633 5634 5634 5634 5634 5633 5633 5634 5634
5618 5617 5617 5619 5620 5619 5618 5618 5617 5617 5617 5616 5616 5615 5614 5613 5613 5612 5613 5613 5612 5612 5611 5611 5610 5610 5609 5608 5607 5606 5605 5604 5603 5603 5603 5603 5603 5604 5604 5604 5605 5607 5608 5607 5606 5606 5607 5608 5609 5608 5609 5610 5611 5613 5614 5614 5616 5617 5617 5616 5619 5622 5623 5623 5623 5624 5624 5623 5624 5624 5625 5625 5625 5626
5611 5610 5610 5612 5612 5611 5610 5610 5610 5610 5609 5608 5608 5607 5606 5605 5605 5605 5604 5604 5603 5603 5602 5602 5601 5601 5600 5599 5599 5598 5597 5596 5594 5594 5593 5593 5594 5594 5595 5595 5596 5596 5597 5597 5597 5597 5598 5599 5599 5598 5598 5599 5601 5602 5604 5605 5606 5607 5606 5606 5609 5612 5613 5613 5613 5614 5614 5613 5613 5615 5615 5616 5616 5616
5604 5603 5603 5604 5604 5603 5603 5602 5602 5602 5601 5600 5599 5599 5598 5597 5597 5596 5596 5595 5594 5594 5593 5593 5593 5592 5591 5591 5590 5590 5588 5587 5586 5585 5584 5583 5583 5584 5585 5586 5586 5586 5587 5586 5586 5586 5587 5588 5589 5588 5588 5588 5590 5591 5593 5595 5597 5597 5596 5597 5599 5601 5602 5603 5603 5603 5604 5603 5604 5605 5605 5606 5606 5606
5597 5597 5596 5596 5596 5595 5595 5595 5595 5594 5593 5592 5591 5590 5590 5589 5588 5587 5587 5586 5586 5585 5585 5584 5584 5583 5583 5582 5581 5581 5579 5578 5577 5576 5575 5574 5574 5574 5575 5575 5576 5576 5576 5576 5576 5576 5576 5577 5578 5578 5578 5578 5579 5581 5582 5584 5586 5587 5585 5586 5589 5591 5591 5592 5593 5593 5593 5594 5595 5595 5595 5595 5596 5596
5591 5590 5590 5589 5589 5588 5588 5588 5587 5586 5585 5584 5583 5582 5581 5580 5579 5579 5578 5577 5577 5576 5576 5575 5574 5574 5573 5572 5571 5570 5569 5568 5568 5566 5565 5565 5564 5564 5564 5565 5566 5566 5566 5566 5566 5566 5566 5567 5567 5568 5568 5569 5569 5571 5571 5572 5575 5577 5575 5576 5580 5581 5582 5582 5582 5582 5584 5585 5585 5586 5585 5585 5585 5586
5584 5584 5583 5583 5582 5582 5581 5581 5580 5579 5578 5577 5575 5574 5573 5572 5571 5570 5569 5569 5568 5567 5566 5565 5564 5563 5562 5561 5560 5559 5558 5558 5557 5556 5555 5555 5555 5554 5553 5555 5556 5557 5556 5556 5555 5555 5556 5557 5557 5557 5558 5559 5559 5561 5561 5562 5564 5566 5565 5566 5570 5571 5572 5572 5572 5571 5573 5575 5575 5575 5575 5575 5576 5577
5578 5578 5577 5577 5576 5576 5575 5574 5573 5572 5571 5570 5568 5567 5565 5564 5563 5562 5561 5560 5559 5557 5556 5555 5554 5552 5551 5550 5549 5548 5548 5547 5546 5545 5545 5544 5544 5544 5543 5544 5546 5546 5546 5545 5545 5544 5545 5546 5546 5547 5548 5549 5550 5550 5550 5551 5554 5555 5555 5556 5559 5561 5562 5562 5561 5561 5563 5565 5565 5566 5566 5567 5567 5569
5572 5571 5571 5571 5570 5569 5568 5567 5566 5565 5564 5563 5561 5560 5558 5557 5556 5554 5552 5551 5549 5548 5546 5545 5543 5542 5540 5540 5538 5537 5537 5536 5535 5534 5534 5533 5533 5533 5533 5534 5535 5535 5534 5534 5534 5534 5534 5534 5535 5536 5537 5538 5539 5540 5540 5542 5544 5544 5544 5545 5547 5549 5550 5551 5551 5552 5553 5555 5556 5557 5558 5559 5560 5561
5566 5566 5565 5565 5564 5563 5562 5561 5560 5559 5557 5556 5554 5552 5551 5549 5547 5545 5543 5541 5540 5538 5536 5534 5533 5531 5530 5529 5527 5526 5526 5525 5524 5523 5522 5522 5522 5522 5522 5522 5523 5523 5523 5524 5524 5523 5523 5524 5525 5526 5527 5528 5528 5529 5530 5531 5532 5532 5533 5534 5536 5538 5540 5541 5543 5544 5545 5547 5549 5549 5550 5551 5553 5554
5561 5561 5561 5560 5559 5558 5557 5556 5554 5552 5550 5548 5546 5544 5542 5540 5538 5536 5534 5532 5530 5528 5526 5525 5523 5521 5520 5518 5517 5515 5514 5514 5513 5512 5511 5511 5511 5511 5511 5512 5513 5512 5513 5514 5514 5513 5513 5514 5515 5516 5517 5518 5519 5520 5520 5521 5522 5523 5524 5525 5527 5529 5531 5534 5535 5536 5538 5540 5541 5542 5543 5545 5546 5548
5558 5557 5556 5555 5554 5553 5551 5549 5547 5545 5543 5541 5539 5536 5534 5532 5529 5527 5525 5523 5521 5519 5517 5515 5513 5512 5510 5508 5507 5505 5504 5503 5502 5501 5501 5501 5501 5501 5502 5502 5503 5503 5504 5505 5505 5505 5505 5506 5507 5508 5509 5510 5511 5512 5512 5512 5514 5516 5517 5518 5520 5523 5525 5527 5528 5529 5531 5532 5534 5535 5536 5538 5540 5542
5554 5553 5552 5551 5549 5547 5545 5543 5541 5539 5536 5534 5531 5529 5526 5523 5521 5519 5516 5514 5512 5509 5507 5505 5504 5502 5500 5498 5497 5496 5495 5494 5493 5493 5493 5492 5492 5493 5494 5494 5495 5496 5496 5497 5498 5497 5498 5499 5499 5500 5501 5502 5504 5505 5505 5505 5507 5509 5511 5512 5514 5516 5518 5520 5521 5523 5524 5525 5527 5528 5530 5532 5534 5536
5550 5549 5548 5546 5544 5542 5540 5538 5536 5533 5530 5527 5524 5521 5518 5515 5513 5510 5508 5505 5503 5501 5499 5497 5495 5494 5492 5491 5490 5489 5488 5487 5487 5486 5486 5486 5486 5487 5487 5488 5489 5489 5490 5490 5491 5491 5491 5492 5493 5493 5494 5495 5497 5498 5499 5499 5501 5503 5504 5506 5508 5510 5512 5513 5515 5516 5518 5519 5521 5523 5525 5527 5528 5530
5546 5545 5543 5541 5540 5538 5536 5533 5531 5528 5524 5521 5517 5514 5511 5508 5505 5502 5499 5497 5495 5494 5492 5491 5489 5488 5486 5485 5484 5484 5483 5482 5481 5481 5481 5481 5481 5482 5482 5482 5483 5483 5483 5484 5484 5484 5485 5486 5486 5487 5488 5489 5490 5491 5492 5494 5496 5497 5498 5500 5502 5504 5506 5508 5509 5511 5513 5514 5516 5518 5520 5522 5524 5526
5543 5541 5540 5538 5537 5534 5532 5529 5525 5522 5518 5514 5510 5507 5504 5501 5498 5495 5493 5491 5490 5488 5487 5486 5484 5483 5482 5481 5480 5480 5479 5478 5478 5477 5477 5477 5477 5477 5477 5477 5478 5478 5478 5479 5479 5479 5480 5480 5480 5481 5482 5483 5484 5485 5487 5489 5491 5492 5493 5495 5497 5499 5501 5502 5504 5506 5508 5510 5512 5513 5515 5517 5519 5522
5540 5539 5537 5535 5533 5530 5527 5523 5519 5515 5511 5507 5503 5500 5496 5493 5491 5489 5488 5487 5486 5484 5483 5482 5480 5479 5478 5478 5477 5476 5475 5475 5474 5474 5473 5473 5473 5473 5472 5472 5473 5473 5473 5474 5474 5474 5474 5475 5475 5475 5476 5477 5478 5480 5482 5484 5485 5487 5488 5490 5492 5494 5496 5498 5500 5502 5504 5506 5508 5509 5511 5513 5515 5518
5538 5537 5534 5532 5529 5526 5522 5518 5514 5509 5505 5500 5496 5493 5490 5488 5486 5485 5484 5483 5482 5481 5480 5479 5478 5477 5476 5475 5474 5473 5472 5471 5470 5469 5469 5468 5468 5468 5468 5468 5468 5468 5468 5468 5469 5469 5469 5470 5470 5470 5471 5472 5473 5475 5477 5478 5480 5481 5483 5485 5488 5490 5492 5495 5497 5499 5501 5502 5504 5506 5507 5510 5512 5515
5536 5534 5531 5528 5525 5521 5517 5513 5508 5503 5498 5494 5491 5488 5486 5484 5483 5482 5481 5480 5479 5479 5478 5477 5476 5475 5473 5472 5471 5470 5468 5467 5466 5465 5464 5464 5463 5463 5463 5463 5463 5463 5463 5463 5463 5464 5464 5464 5465 5465 5466 5467 5468 5470 5471 5473 5474 5476 5478 5480 5483 5486 5489 5491 5493 5495 5497 5499 5501 5503 5505 5507 5510 5512
5533 5531 5528 5524 5521 5517 5513 5509 5504 5498 5493 5489 5487 5485 5483 5482 5481 5480 5479 5478 5477 5477 5476 5475 5474 5472 5471 5469 5468 5466 5465 5464 5462 5461 5461 5460 5459 5459 5459 5458 5458 5458 5458 5458 5458 5459 5459 5459 5460 5461 5462 5463 5464 5465 5466 5468 5469 5471 5473 5476 5480 5483 5486 5488 5490 5492 5494 5496 5498 5500 5502 5505 5507 5509
5531 5528 5524 5521 5518 5514 5510 5505 5500 5494 5489 5486 5484 5483 5481 5480 5479 5478 5477 5476 5476 5475 5474 5473 5471 5470 5468 5467 5465 5464 5462 5461 5459 5458 5457 5457 5456 5455 5455 5455 5454 5454 5454 5454 5454 5454 5455 5455 5456 5457 5458 5459 5460 5461 5462 5463 5465 5467 5470 5473 5477 5480 5483 5485 5488 5490 5492 5494 5496 5498 5500 5503 5506 5508